Regional Weather Roundup
Issued by NWS Goodland, KS

Home | Current Version | Previous Version | Graphics & Text | Print | Product List | Glossary On
Versions: 1 2 3 4 5 6 7 8 9 10 11 12 13 14 15 16 17 18 19 20 21 22 23 24 25 26 27 28 29 30 31 32 33 34 35 36 37 38 39 40 41 42 43 44 45 46 47 48 49 50
763
ASUS43 KGLD 101708
RWRGLD

GOODLAND FORECAST AREA HOURLY WEATHER ROUNDUP
NATIONAL WEATHER SERVICE GOODLAND KS
1000 AM MST WED FEB 10 2016

...OFFICIAL OBSERVATIONS...

CITY           SKY/WX    TMP DP  RH WIND       PRES   REMARKS
GOODLAND KS    SUNNY     50  24  36 W16       30.08R
HILL CITY KS   SUNNY     50  27  40 W13G24    29.99F
IMPERIAL NEB   SUNNY     43  27  53 W17       30.02R
MCCOOK NEB     SUNNY     43  27  53 W14       29.99S
AKRON CO       SUNNY     43  24  47 W18       30.10R
BURLINGTON CO  SUNNY     46  25  43 W16       30.10S
LIMON CO       SUNNY     42  23  46 W12       30.18S
$$

...UNOFFICIAL OBSERVATIONS...

CITY           SKY/WX    TMP DP  RH WIND       PRES   REMARKS
COLBY KS       SUNNY     43  32  65 W13       30.06R
GOVE KS          N/A     52  32  46 MISG        N/A
LENORA KS        N/A     47  32  56 MISG        N/A
NORTON KS      SUNNY     43  25  49 W13       29.97S
SHARON SPRINGS   N/A     51  32  48 NW10        N/A
KIT CARSON CO    N/A     55  30  38 MISG        N/A
YUMA CO          N/A     45  28  50 W21         N/A
$$




USA.gov is the U.S. government's official web portal to all federal, state and local government web resources and services.